Montrose, CO

11:35 PM MDT on May 22, 2017 (GMT -0600)
Montrose Regional

Weather History for KMTJ - November, 2012

Change the Weather History Date:

Sunday, November 11, 2012

  Actual Average Record
Temperature  
Mean Temperature 25 °F 39 °F  
Max Temperature 32 °F 52 °F 66 °F (2007)
Min Temperature 18 °F 26 °F 16 °F (1998)
Degree Days  
Heating Degree Days 40 26  
Month to date heating degree days 207 258  
Since 1 July heating degree days 672 849  
Cooling Degree Days 0 0  
Month to date cooling degree days 0 0  
Year to date cooling degree days 906 643  
Moisture  
Dew Point 19 °F    
Average Humidity 74    
Maximum Humidity 100    
Minimum Humidity 47    
Precipitation  
Precipitation 0.09 in 0.02 in 0.36 in (1997)
Month to date precipitation 0.15 0.33  
Year to date precipitation 5.48 10.17  
Sea Level Pressure  
Sea Level Pressure 30.09 in    
Wind  
Wind Speed 5 mph (WNW)    
Max Wind Speed 17 mph    
Max Gust Speed 24 mph    
Visibility 6 miles    
Events Fog , Snow    
T = Trace of Precipitation, MM = Missing Value Source: NWS Daily Summary

Daily Weather History Graph

Daily Weather History Graph

Search for Another Location

Airport or City:

Trip Planner

Search our weather history database for the weather conditions in past years. The results will help you decide how hot, cold, wet, or windy it might be!

Date:

Astronomy

Nov. 11, 2012 Rise Set
Actual Time 6:49 AM MST 5:01 PM MST
Civil Twilight 6:21 AM MST 5:29 PM MST
Nautical Twilight 5:49 AM MST 6:01 PM MST
Astronomical Twilight 5:18 AM MST 6:32 PM MST
Moon 4:08 AM MST (11/11) 3:25 PM MST (11/11)
Length of Visible Light 11h 07m
Length of Day
10h 11m
Waning Crescent, 7% of the Moon is Illuminated
Nov 11
Waning Crescent
Nov 13
New
Nov 20
First Quarter
Nov 28
Full
Dec 6
Last Quarter

Hourly Weather History & Observations

Time (MST) Temp. Windchill Dew Point Humidity Pressure Visibility Wind Dir Wind Speed Gust Speed Precip Events Conditions
12:00 AM 26.6 °F 17.5 °F 24.8 °F 93% 29.90 in 1.8 mi WNW 9.2 mph - 0.00 in Snow Light Snow
12:04 AM 26.6 °F 20.0 °F 24.8 °F 93% 29.90 in 2.0 mi WNW 5.8 mph - 0.00 in Snow Light Snow
12:07 AM 26.6 °F 21.2 °F 24.8 °F 93% 29.90 in 3.0 mi WNW 4.6 mph - 0.00 in Snow Light Snow
12:14 AM 26.6 °F - 24.8 °F 93% 29.90 in 2.5 mi Calm Calm - 0.00 in Snow Light Snow
12:22 AM 24.8 °F 19.1 °F 24.8 °F 100% 29.90 in 1.8 mi WNW 4.6 mph - 0.00 in Snow Light Snow
12:25 AM 24.8 °F 19.1 °F 24.8 °F 100% 29.90 in 1.0 mi West 4.6 mph - 0.00 in Snow Light Snow
12:30 AM 24.8 °F 20.5 °F 24.8 °F 100% 29.90 in 0.5 mi West 3.5 mph - 0.00 in Fog , Snow Snow
12:53 AM 25.0 °F 18.1 °F 24.1 °F 96% 29.93 in 0.8 mi West 5.8 mph - 0.03 in Snow Light Snow
1:24 AM 24.8 °F 19.1 °F 24.8 °F 100% 29.91 in 1.2 mi WSW 4.6 mph - 0.02 in Snow Light Snow
1:41 AM 24.8 °F 16.1 °F 24.8 °F 100% 29.91 in 1.2 mi WSW 8.1 mph - 0.03 in Snow Light Snow
1:53 AM 25.0 °F 18.1 °F 24.1 °F 96% 29.91 in 1.8 mi West 5.8 mph - 0.03 in Snow Light Snow
2:06 AM 24.8 °F 16.9 °F 24.8 °F 100% 29.92 in 1.0 mi West 6.9 mph - 0.00 in Snow Light Snow
2:11 AM 24.8 °F 17.9 °F 24.8 °F 100% 29.92 in 0.8 mi West 5.8 mph - 0.01 in Snow Light Snow
2:42 AM 24.8 °F 19.1 °F 24.8 °F 100% 29.93 in 1.2 mi West 4.6 mph - 0.03 in Snow Light Snow
2:47 AM 24.8 °F 20.5 °F 24.8 °F 100% 29.93 in 2.0 mi West 3.5 mph - 0.03 in Snow Light Snow
2:53 AM 25.0 °F 20.7 °F 24.1 °F 96% 29.94 in 2.0 mi WNW 3.5 mph - 0.03 in Snow Light Snow
3:06 AM 24.8 °F - 23.0 °F 93% 29.94 in 5.0 mi Calm Calm - 0.00 in Snow Light Snow
3:18 AM 24.8 °F - 23.0 °F 93% 29.94 in 9.0 mi Calm Calm - 0.00 in   Overcast
3:53 AM 25.0 °F - 21.9 °F 88% 29.96 in 10.0 mi Calm Calm - 0.00 in   Overcast
4:53 AM 24.1 °F - 21.0 °F 88% 30.00 in 10.0 mi Calm Calm - N/A   Partly Cloudy
5:53 AM 19.9 °F 14.9 °F 19.0 °F 96% 30.04 in 10.0 mi SE 3.5 mph - N/A   Clear
6:53 AM 21.0 °F 12.4 °F 19.0 °F 92% 30.08 in 10.0 mi East 6.9 mph - N/A   Overcast
7:53 AM 21.9 °F - 19.9 °F 92% 30.12 in 10.0 mi Calm Calm - N/A   Overcast
9:53 AM 27.0 °F 20.5 °F 12.9 °F 56% 30.17 in 10.0 mi West 5.8 mph - N/A   Clear
10:53 AM 30.0 °F 26.5 °F 12.0 °F 47% 30.17 in 10.0 mi NE 3.5 mph - N/A   Partly Cloudy
11:53 AM 28.0 °F 20.0 °F 15.1 °F 58% 30.20 in 8.0 mi NW 8.1 mph - 0.00 in   Overcast
12:04 PM 24.8 °F 13.4 °F 17.6 °F 74% 30.16 in 2.5 mi NNW 12.7 mph 24.2 mph 0.00 in Snow Light Snow
12:06 PM 24.8 °F 15.3 °F 17.6 °F 74% 30.16 in 1.5 mi NNW 9.2 mph 24.2 mph 0.00 in Snow Light Snow
12:15 PM 26.6 °F - 19.4 °F 74% 30.15 in 3.0 mi Calm Calm - 0.00 in Snow Light Snow
12:29 PM 26.6 °F - 17.6 °F 69% 30.15 in 10.0 mi Calm Calm - 0.00 in   Scattered Clouds
12:53 PM 27.0 °F 21.6 °F 18.0 °F 69% 30.20 in 10.0 mi ESE 4.6 mph - 0.00 in   Partly Cloudy
1:53 PM 28.9 °F 25.2 °F 12.9 °F 51% 30.21 in 10.0 mi NNW 3.5 mph - N/A   Clear
2:53 PM 30.9 °F - 14.0 °F 50% 30.21 in 10.0 mi Calm Calm - N/A   Mostly Cloudy
3:53 PM 30.0 °F 24.1 °F 16.0 °F 56% 30.24 in 10.0 mi North 5.8 mph - N/A   Mostly Cloudy
4:53 PM 30.0 °F 23.2 °F 16.0 °F 56% 30.28 in 10.0 mi NNW 6.9 mph - N/A   Overcast
5:53 PM 28.9 °F - 15.1 °F 56% 30.32 in 10.0 mi Calm Calm - N/A   Scattered Clouds
6:53 PM 26.1 °F 19.4 °F 12.9 °F 58% 30.35 in 10.0 mi South 5.8 mph - N/A   Clear
7:53 PM 23.0 °F 12.4 °F 14.0 °F 68% 30.39 in 10.0 mi SE 10.4 mph - N/A   Clear
8:53 PM 21.0 °F 11.4 °F 12.0 °F 68% 30.43 in 10.0 mi ESE 8.1 mph - N/A   Clear
9:53 PM 19.9 °F 10.1 °F 10.9 °F 68% 30.45 in 10.0 mi ESE 8.1 mph - N/A   Clear
10:53 PM 19.0 °F 10.0 °F 10.0 °F 68% 30.47 in 10.0 mi ESE 6.9 mph - N/A   Clear
11:53 PM 18.0 °F 8.7 °F 9.0 °F 68% 30.51 in 10.0 mi SE 6.9 mph - N/A   Clear